Weather History for Szolnok, Hungary

Change the Weather History Date:

Sunday, May 12, 2013

  Actual Average (LHBP) Record (LHBP)
Temperature  
Mean Temperature 62 °F -  
Max Temperature 69 °F 70 °F 87 °F (2003)
Min Temperature 55 °F 47 °F 35 °F (2005)
Degree Days  
Heating Degree Days 3    
Growing Degree Days 12 (Base 50)    
Moisture  
Dew Point 54 °F    
Average Humidity 79    
Maximum Humidity 94    
Minimum Humidity 60    
Precipitation  
Precipitation 0.00 in - - ()
Sea Level Pressure  
Sea Level Pressure 29.74 in    
Wind  
Wind Speed 8 mph ()    
Max Wind Speed 13 mph    
Max Gust Speed 22 mph    
Visibility 6.2 miles    
Events Rain , Thunderstorm    
Averages and records for this station are not official NWS values.
T = Trace of Precipitation, MM = Missing Value Source: Averaged Metar Reports

Daily Weather History Graph

Daily Weather History Graph

Search for Another Location

Airport:

Trip Planner

Search our weather history database for the weather conditions in past years. The results will help you decide how hot, cold, wet, or windy it might be!

Date:

Astronomy

May. 12, 2013 Rise Set
Actual Time 5:07 AM CEST 8:04 PM CEST
Civil Twilight 4:31 AM CEST 8:40 PM CEST
Nautical Twilight 3:45 AM CEST 9:26 PM CEST
Astronomical Twilight 2:50 AM CEST 10:21 PM CEST
Moon 6:45 AM CEST (5/12) 10:19 PM CEST (5/12)
Length of Visible Light 16h 08m
Length of Day
14h 57m
Waxing Crescent, 5% of the Moon is Illuminated
May 12
Waxing Crescent
May 18
First Quarter
May 25
Full
May 31
Last Quarter
Jun 8
New

Hourly Weather History & Observations

Time (CEST) Temp. Dew Point Humidity Pressure Visibility Wind Dir Wind Speed Gust Speed Precip Events Conditions
12:15 AM 60.8 °F 57.2 °F 88% 29.77 in - West 11.2 mph - N/A   Clear
1:15 AM 59.0 °F 55.4 °F 88% 29.74 in - NW 8.9 mph - N/A   Clear
1:45 AM 59.0 °F 55.4 °F 88% 29.74 in - NW 8.9 mph - N/A   Clear
2:15 AM 59.0 °F 55.4 °F 88% 29.74 in - WNW 6.7 mph - N/A   Clear
3:15 AM 57.2 °F 55.4 °F 94% 29.74 in - West 8.9 mph - N/A   Clear
3:45 AM 57.2 °F 53.6 °F 88% 29.74 in - West 8.9 mph - N/A   Clear
4:15 AM 55.4 °F 53.6 °F 94% 29.71 in - WNW 11.2 mph - N/A   Clear
4:45 AM 55.4 °F 53.6 °F 94% 29.71 in - WNW 8.9 mph - N/A   Clear
5:15 AM 55.4 °F 53.6 °F 94% 29.74 in - West 8.9 mph - N/A   Clear
5:45 AM 57.2 °F 55.4 °F 94% 29.74 in 6.2 mi WNW 8.9 mph - N/A   Scattered Clouds
6:00 AM - - N/A% - 6.2 mi WNW 11.2 mph - N/A   Clear
6:15 AM 55.4 °F 53.6 °F 94% 29.74 in 6.2 mi West 8.9 mph - N/A   Scattered Clouds
6:45 AM - - N/A% - 6.2 mi West 11.2 mph - N/A   Overcast
7:15 AM 57.2 °F 55.4 °F 94% 29.74 in 6.2 mi WNW 11.2 mph - N/A   Mostly Cloudy
7:45 AM - - N/A% - 6.2 mi WNW 11.2 mph - N/A   Overcast
8:15 AM 59.0 °F 53.6 °F 82% 29.74 in 6.2 mi WNW 11.2 mph - N/A   Mostly Cloudy
8:45 AM 57.2 °F 53.6 °F 88% 29.77 in 6.2 mi WNW 11.2 mph - N/A   Overcast
9:03 AM 59.0 °F 53.6 °F 82% 29.77 in 6.2 mi West 6.7 mph - N/A Thunderstorm Thunderstorm
9:15 AM 59.0 °F 53.6 °F 82% 29.77 in 6.2 mi WNW 6.7 mph - N/A Thunderstorm Thunderstorm
9:45 AM - - N/A% - 6.2 mi WNW 11.2 mph - N/A   Overcast
10:15 AM 60.8 °F 53.6 °F 77% 29.74 in 6.2 mi WNW 13.4 mph - N/A   Scattered Clouds
10:31 AM 60.8 °F 55.4 °F 82% 29.74 in 6.2 mi West 11.2 mph - N/A Rain Light Rain Showers
10:40 AM 60.8 °F 55.4 °F 82% 29.74 in 6.2 mi West 8.9 mph - N/A Rain , Thunderstorm Light Thunderstorms and Rain
10:45 AM 60.8 °F 55.4 °F 82% 29.74 in 6.2 mi WNW 11.2 mph - N/A Rain , Thunderstorm Light Thunderstorms and Rain
11:15 AM 60.8 °F 55.4 °F 82% 29.74 in 6.2 mi WNW 4.5 mph - N/A Thunderstorm Thunderstorm
11:34 AM 62.6 °F 55.4 °F 77% 29.74 in 6.2 mi WNW 6.7 mph - N/A   Scattered Clouds
11:45 AM 62.6 °F 57.2 °F 82% 29.74 in 6.2 mi West 6.7 mph - N/A   Scattered Clouds
12:15 PM 64.4 °F 57.2 °F 77% 29.74 in 6.2 mi WNW 4.5 mph - N/A   Mostly Cloudy
12:45 PM - - N/A% - 6.2 mi WNW 6.7 mph - N/A   Overcast
1:15 PM 66.2 °F 57.2 °F 73% 29.74 in 6.2 mi WNW 4.5 mph - N/A   Scattered Clouds
1:45 PM 68.0 °F 57.2 °F 68% 29.74 in 6.2 mi NW 4.5 mph - N/A   Scattered Clouds
2:15 PM 68.0 °F 55.4 °F 64% 29.71 in 6.2 mi NW 6.7 mph - N/A   Mostly Cloudy
2:45 PM 68.0 °F 57.2 °F 68% 29.71 in 6.2 mi WNW 6.7 mph - N/A   Mostly Cloudy
3:15 PM 68.0 °F 57.2 °F 68% 29.71 in 6.2 mi West 4.5 mph - N/A   Mostly Cloudy
3:45 PM - - N/A% - 6.2 mi WNW 6.7 mph - N/A   Overcast
4:15 PM 69.8 °F 57.2 °F 64% 29.71 in 6.2 mi WNW 6.7 mph - N/A   Scattered Clouds
4:45 PM 69.8 °F 55.4 °F 60% 29.71 in 6.2 mi WNW 6.7 mph - N/A   Scattered Clouds
5:15 PM 68.0 °F 55.4 °F 64% 29.71 in 6.2 mi West 8.9 mph - N/A   Partly Cloudy
5:45 PM 66.2 °F 53.6 °F 64% 29.71 in 6.2 mi WNW 11.2 mph 22.4 mph N/A   Partly Cloudy
6:15 PM 66.2 °F 53.6 °F 64% 29.71 in 6.2 mi WNW 8.9 mph - N/A   Scattered Clouds
6:45 PM - - N/A% - 6.2 mi WNW 8.9 mph - N/A   Overcast
7:15 PM 64.4 °F 51.8 °F 64% 29.71 in 6.2 mi WNW 8.9 mph - N/A   Scattered Clouds
7:45 PM 62.6 °F 51.8 °F 68% 29.74 in 6.2 mi WNW 11.2 mph - N/A   Mostly Cloudy
8:15 PM 60.8 °F 51.8 °F 72% 29.74 in - West 8.9 mph - N/A   Clear
8:45 PM 60.8 °F 51.8 °F 72% 29.74 in - West 8.9 mph - N/A   Clear
9:15 PM 60.8 °F 51.8 °F 72% 29.77 in - West 6.7 mph - N/A   Clear
9:45 PM - - N/A% - 6.2 mi West 8.9 mph - N/A   Overcast
10:15 PM 59.0 °F 50.0 °F 72% 29.77 in - West 11.2 mph - N/A   Clear
10:45 PM 59.0 °F 50.0 °F 72% 29.77 in - West 8.9 mph - N/A   Clear
11:15 PM 57.2 °F 50.0 °F 77% 29.77 in - WNW 6.7 mph - N/A   Clear
11:45 PM 57.2 °F 50.0 °F 77% 29.77 in - WNW 8.9 mph - N/A   Clear